Weather History for Belleville, IL

Change the Weather History Date:

Sunday, March 9, 2014

  Actual Average Record
Temperature  
Mean Temperature 40 °F -  
Max Temperature 54 °F 55 °F 79 °F (1974)
Min Temperature 26 °F 32 °F 13 °F (1989)
Degree Days  
Heating Degree Days 25    
Moisture  
Dew Point 31 °F    
Average Humidity 75    
Maximum Humidity 100    
Minimum Humidity 44    
Precipitation  
Precipitation 0.00 in - - ()
Sea Level Pressure  
Sea Level Pressure 30.22 in    
Wind  
Wind Speed 6 mph (SSW)    
Max Wind Speed 13 mph    
Max Gust Speed -    
Visibility 9 miles    
Events      
Averages and records for this station are not official NWS values.
T = Trace of Precipitation, MM = Missing Value Source: NWS Daily Summary

Daily Weather History Graph

Daily Weather History Graph

Search for Another Location

Airport:

Trip Planner

Search our weather history database for the weather conditions in past years. The results will help you decide how hot, cold, wet, or windy it might be!

Date:

Astronomy

Mar. 09, 2014 Rise Set
Actual Time 7:19 AM CDT 7:00 PM CDT
Civil Twilight 6:53 AM CDT 7:27 PM CDT
Nautical Twilight 6:22 AM CDT 7:57 PM CDT
Astronomical Twilight 5:51 AM CDT 8:28 PM CDT
Moon 12:56 PM CDT (3/9) 3:42 AM CDT (3/9)
Length of Visible Light 12h 33m
Length of Day
11h 40m
First Quarter, 61% of the Moon is Illuminated
Mar 9
First Quarter
Mar 16
Full
Mar 23
Last Quarter
Mar 30
New
Apr 7
First Quarter

Hourly Weather History & Observations

Time (CDT) Temp. Windchill Dew Point Humidity Pressure Visibility Wind Dir Wind Speed Gust Speed Precip Events Conditions
12:58 AM 34.7 °F 29.6 °F 32.0 °F 90% 30.32 in 10.0 mi NW 5.8 mph - N/A   Overcast
1:58 AM 34.7 °F 29.6 °F 29.1 °F 80% 30.32 in 10.0 mi NNW 5.8 mph - N/A   Overcast
3:58 AM 34.5 °F 30.4 °F 27.5 °F 76% 30.32 in 10.0 mi NW 4.6 mph - N/A   Overcast
4:58 AM 34.5 °F - 26.8 °F 73% 30.33 in 10.0 mi NNW 2.3 mph - N/A   Overcast
5:33 AM 32.0 °F 27.5 °F 28.4 °F 87% 30.31 in 10.0 mi NNW 4.6 mph - N/A   Overcast
5:43 AM 32.0 °F 27.5 °F 28.4 °F 87% 30.31 in 10.0 mi NNW 4.6 mph - N/A   Mostly Cloudy
5:53 AM 32.0 °F 28.7 °F 28.4 °F 87% 30.31 in 10.0 mi NNW 3.5 mph - N/A   Scattered Clouds
5:58 AM 30.7 °F - 27.9 °F 89% 30.32 in 10.0 mi NNW 2.3 mph - N/A   Scattered Clouds
6:08 AM 32.0 °F - 28.4 °F 87% 30.30 in 9.0 mi Calm Calm - N/A   Clear
6:58 AM 27.0 °F - 26.4 °F 98% 30.33 in 6.0 mi South 2.3 mph - N/A   Clear
7:08 AM 26.6 °F - 26.6 °F 100% 30.30 in 6.0 mi SW 2.3 mph - N/A   Clear
7:58 AM 26.2 °F - 26.1 °F 99% 30.34 in 4.0 mi NNW 1.2 mph - N/A   Clear
8:58 AM 32.9 °F - 32.5 °F 99% 30.35 in 5.0 mi Calm Calm - N/A   Clear
9:58 AM 37.4 °F 34.9 °F 27.7 °F 68% 30.34 in 10.0 mi South 3.5 mph - N/A   Clear
10:58 AM 40.1 °F 35.3 °F 28.4 °F 63% 30.34 in 10.0 mi South 6.9 mph - N/A   Scattered Clouds
11:58 AM 42.4 °F 37.0 °F 28.8 °F 58% 30.30 in 10.0 mi South 9.2 mph - N/A   Clear
12:58 PM 45.0 °F 39.7 °F 29.7 °F 55% 30.27 in 10.0 mi South 10.4 mph - N/A   Clear
1:58 PM 47.8 °F - 30.9 °F 52% 30.22 in 10.0 mi South 12.7 mph - N/A   Clear
2:58 PM 50.0 °F - 31.8 °F 50% 30.17 in 10.0 mi South 10.4 mph - N/A   Clear
3:58 PM 52.2 °F - 32.7 °F 48% 30.14 in 10.0 mi South 11.5 mph - N/A   Clear
4:58 PM 54.1 °F - 32.7 °F 44% 30.10 in 10.0 mi South 11.5 mph - N/A   Clear
5:58 PM 54.3 °F - 33.6 °F 46% 30.08 in 10.0 mi South 9.2 mph - N/A   Clear
6:58 PM 49.3 °F - 35.2 °F 58% 30.07 in 10.0 mi SSE 10.4 mph - N/A   Clear
7:58 PM 44.8 °F 39.9 °F 35.2 °F 69% 30.06 in 10.0 mi SSE 9.2 mph - N/A   Clear
8:58 PM 42.6 °F 39.0 °F 35.1 °F 75% 30.06 in 10.0 mi South 5.8 mph - N/A   Clear
9:58 PM 40.8 °F 35.0 °F 36.9 °F 86% 30.05 in 10.0 mi South 9.2 mph - N/A   Clear
10:58 PM 39.7 °F 36.5 °F 36.3 °F 88% 30.05 in 10.0 mi South 4.6 mph - N/A   Clear
11:58 PM 39.0 °F 33.4 °F 34.3 °F 83% 30.04 in 10.0 mi South 8.1 mph - N/A   Clear
12:58 AM 36.9 °F 32.2 °F 32.7 °F 85% 30.02 in 10.0 mi South 5.8 mph - N/A   Clear